Time,TemperatureF,DewpointF,PressureIn,WindDirection,WindDirectionDegrees,WindSpeedMPH,WindSpeedGustMPH,Humidity,HourlyPrecipIn,Conditions,Clouds,dailyrainin,SoftwareType,DateUTC
2013-07-09 00:00:00,66.8,55.1,29.73,NNW,331,2.0,3.0,66,0.00,,---,0.00,VWS V14.01,2013-07-09 06:00:00,
2013-07-09 00:01:00,66.8,55.1,29.73,NNW,331,2.0,2.0,66,0.00,,---,0.00,VWS V14.01,2013-07-09 06:01:00,
2013-07-09 00:06:00,66.6,54.9,29.70,NNW,331,1.0,3.0,66,0.00,,---,0.00,VWS V14.01,2013-07-09 06:06:00,
2013-07-09 00:10:00,66.4,54.7,29.72,NNW,331,2.0,3.0,66,0.00,,---,0.00,VWS V14.01,2013-07-09 06:10:00,
2013-07-09 00:11:00,66.4,54.3,29.70,NNW,331,1.0,3.0,65,0.00,,---,0.00,VWS V14.01,2013-07-09 06:11:00,
2013-07-09 00:16:00,66.3,55.0,29.72,NNW,331,0.0,3.0,67,0.00,,---,0.00,VWS V14.01,2013-07-09 06:16:00,
2013-07-09 00:20:00,66.2,54.9,29.72,NNW,331,0.0,3.0,67,0.00,,---,0.00,VWS V14.01,2013-07-09 06:20:00,
2013-07-09 00:21:00,66.2,54.9,29.72,NNW,331,0.0,3.0,67,0.00,,---,0.00,VWS V14.01,2013-07-09 06:21:00,
2013-07-09 00:26:00,65.9,54.2,29.72,NNW,333,0.0,4.0,66,0.00,,---,0.00,VWS V14.01,2013-07-09 06:26:00,
2013-07-09 00:30:00,65.7,54.0,29.72,NNW,333,0.0,4.0,66,0.00,,---,0.00,VWS V14.01,2013-07-09 06:30:00,
2013-07-09 00:31:00,65.8,54.1,29.72,NNW,333,0.0,4.0,66,0.00,,---,0.00,VWS V14.01,2013-07-09 06:31:00,
2013-07-09 00:36:00,65.6,54.0,29.72,NNW,333,0.0,0.0,66,0.00,,---,0.00,VWS V14.01,2013-07-09 06:36:00,
2013-07-09 00:40:00,65.5,54.3,29.72,NNW,333,0.0,2.0,67,0.00,,---,0.00,VWS V14.01,2013-07-09 06:40:00,
2013-07-09 00:41:00,65.5,54.3,29.72,NNW,333,0.0,2.0,67,0.00,,---,0.00,VWS V14.01,2013-07-09 06:41:00,
2013-07-09 00:46:00,65.4,54.6,29.72,NNW,333,0.0,1.0,68,0.00,,---,0.00,VWS V14.01,2013-07-09 06:46:00,
2013-07-09 00:50:00,65.2,54.4,29.72,NNW,333,0.0,3.0,68,0.00,,---,0.00,VWS V14.01,2013-07-09 06:50:00,
2013-07-09 00:51:00,65.3,54.5,29.72,NNW,333,3.0,3.0,68,0.00,,---,0.00,VWS V14.01,2013-07-09 06:51:00,
2013-07-09 00:56:00,65.1,54.3,29.72,NNW,333,0.0,2.0,68,0.00,,---,0.00,VWS V14.01,2013-07-09 06:56:00,
2013-07-09 01:00:00,66.8,55.1,29.73,NNW,331,2.0,3.0,66,0.00,,---,0.00,VWS V14.01,2013-07-09 07:00:00,
2013-07-09 01:02:00,65.0,54.6,29.73,NNW,333,0.0,3.0,69,0.00,,---,0.00,VWS V14.01,2013-07-09 07:02:00,
2013-07-09 01:07:00,64.8,54.8,29.74,NNW,333,0.0,3.0,70,0.00,,---,0.00,VWS V14.01,2013-07-09 07:07:00,
2013-07-09 01:10:00,64.6,55.0,29.74,NNW,333,0.0,3.0,71,0.00,,---,0.00,VWS V14.01,2013-07-09 07:10:00,
2013-07-09 01:12:00,64.6,55.0,29.74,NNW,333,0.0,3.0,71,0.00,,---,0.00,VWS V14.01,2013-07-09 07:12:00,
2013-07-09 01:17:00,64.4,54.8,29.73,NNW,333,0.0,0.0,71,0.00,,---,0.00,VWS V14.01,2013-07-09 07:17:00,
2013-07-09 01:20:00,64.2,54.6,29.74,NNW,333,0.0,2.0,71,0.00,,---,0.00,VWS V14.01,2013-07-09 07:20:00,
2013-07-09 01:22:00,64.2,54.6,29.74,NNW,333,1.0,1.0,71,0.00,,---,0.00,VWS V14.01,2013-07-09 07:22:00,
2013-07-09 01:27:00,64.1,55.3,29.74,NNW,333,3.0,4.0,73,0.00,,---,0.00,VWS V14.01,2013-07-09 07:27:00,
2013-07-09 01:30:00,63.9,55.1,29.74,NNW,333,0.0,4.0,73,0.00,,---,0.00,VWS V14.01,2013-07-09 07:30:00,
2013-07-09 01:33:00,63.8,55.0,29.74,NNW,333,1.0,1.0,73,0.00,,---,0.00,VWS V14.01,2013-07-09 07:33:00,
2013-07-09 01:38:00,63.6,55.2,29.74,NNW,333,1.0,3.0,74,0.00,,---,0.00,VWS V14.01,2013-07-09 07:38:00,
2013-07-09 01:40:00,63.5,55.1,29.74,NNW,333,0.0,3.0,74,0.00,,---,0.00,VWS V14.01,2013-07-09 07:40:00,
2013-07-09 01:43:00,63.5,55.1,29.74,NNW,333,0.0,0.0,74,0.00,,---,0.00,VWS V14.01,2013-07-09 07:43:00,
2013-07-09 01:48:00,63.3,54.9,29.75,NNW,333,1.0,2.0,74,0.00,,---,0.00,VWS V14.01,2013-07-09 07:48:00,
2013-07-09 01:50:00,63.2,54.8,29.75,NNW,333,3.0,3.0,74,0.00,,---,0.00,VWS V14.01,2013-07-09 07:50:00,
2013-07-09 01:53:00,63.2,54.8,29.75,NNW,333,4.0,4.0,74,0.00,,---,0.00,VWS V14.01,2013-07-09 07:53:00,
2013-07-09 01:58:00,63.1,54.7,29.75,NNW,333,0.0,4.0,74,0.00,,---,0.00,VWS V14.01,2013-07-09 07:58:00,
2013-07-09 02:00:00,63.0,54.6,29.75,NNW,333,1.0,4.0,74,0.00,,---,0.00,VWS V14.01,2013-07-09 08:00:00,
2013-07-09 02:03:00,63.0,54.6,29.74,NNW,333,1.0,2.0,74,0.00,,---,0.00,VWS V14.01,2013-07-09 08:03:00,
2013-07-09 02:08:00,62.9,54.1,29.74,NNW,333,2.0,4.0,73,0.00,,---,0.00,VWS V14.01,2013-07-09 08:08:00,
2013-07-09 02:10:00,62.8,54.0,29.74,NNW,333,0.0,4.0,73,0.00,,---,0.00,VWS V14.01,2013-07-09 08:10:00,
2013-07-09 02:13:00,62.8,54.0,29.74,NNW,333,0.0,0.0,73,0.00,,---,0.00,VWS V14.01,2013-07-09 08:13:00,
2013-07-09 02:18:00,62.7,53.5,29.74,NNW,333,0.0,1.0,72,0.00,,---,0.00,VWS V14.01,2013-07-09 08:18:00,
2013-07-09 02:20:00,62.7,53.5,29.74,NNW,333,0.0,1.0,72,0.00,,---,0.00,VWS V14.01,2013-07-09 08:20:00,
2013-07-09 02:23:00,62.7,53.5,29.74,NNW,333,0.0,0.0,72,0.00,,---,0.00,VWS V14.01,2013-07-09 08:23:00,
2013-07-09 02:28:00,62.7,53.5,29.74,NNW,333,0.0,0.0,72,0.00,,---,0.00,VWS V14.01,2013-07-09 08:28:00,
2013-07-09 02:30:00,62.6,53.5,29.74,NNW,333,0.0,0.0,72,0.00,,---,0.00,VWS V14.01,2013-07-09 08:30:00,
2013-07-09 02:33:00,62.6,53.5,29.73,NNW,333,0.0,0.0,72,0.00,,---,0.00,VWS V14.01,2013-07-09 08:33:00,
2013-07-09 02:38:00,62.5,53.7,29.74,NNW,333,0.0,2.0,73,0.00,,---,0.00,VWS V14.01,2013-07-09 08:38:00,
2013-07-09 02:40:00,62.4,53.6,29.74,NNW,333,0.0,3.0,73,0.00,,---,0.00,VWS V14.01,2013-07-09 08:40:00,
2013-07-09 02:43:00,62.4,53.6,29.75,NNW,333,2.0,2.0,73,0.00,,---,0.00,VWS V14.01,2013-07-09 08:43:00,
2013-07-09 02:48:00,62.3,53.5,29.74,NNW,333,0.0,3.0,73,0.00,,---,0.00,VWS V14.01,2013-07-09 08:48:00,
2013-07-09 02:50:00,62.2,53.5,29.74,NNW,333,0.0,3.0,73,0.00,,---,0.00,VWS V14.01,2013-07-09 08:50:00,
2013-07-09 02:53:00,62.2,53.8,29.74,NNW,333,1.0,1.0,74,0.00,,---,0.00,VWS V14.01,2013-07-09 08:53:00,
2013-07-09 02:58:00,62.0,54.0,29.74,NNW,333,0.0,3.0,75,0.00,,---,0.00,VWS V14.01,2013-07-09 08:58:00,
2013-07-09 03:00:00,61.9,53.9,29.74,NNW,333,0.0,3.0,75,0.00,,---,0.00,VWS V14.01,2013-07-09 09:00:00,
2013-07-09 03:03:00,61.9,53.9,29.73,NNW,333,0.0,1.0,75,0.00,,---,0.00,VWS V14.01,2013-07-09 09:03:00,
2013-07-09 03:08:00,61.7,54.1,29.73,NNW,333,2.0,3.0,76,0.00,,---,0.00,VWS V14.01,2013-07-09 09:08:00,
2013-07-09 03:10:00,61.5,53.9,29.73,NNW,333,3.0,3.0,76,0.00,,---,0.00,VWS V14.01,2013-07-09 09:10:00,
2013-07-09 03:13:00,61.5,53.9,29.73,NNW,333,0.0,3.0,76,0.00,,---,0.00,VWS V14.01,2013-07-09 09:13:00,
2013-07-09 03:18:00,61.4,54.1,29.74,NNW,333,1.0,6.0,77,0.00,,---,0.00,VWS V14.01,2013-07-09 09:18:00,
2013-07-09 03:20:00,61.2,53.9,29.75,NNW,333,0.0,6.0,77,0.00,,---,0.00,VWS V14.01,2013-07-09 09:20:00,
2013-07-09 03:23:00,61.2,53.9,29.75,NNW,333,0.0,0.0,77,0.00,,---,0.00,VWS V14.01,2013-07-09 09:23:00,
2013-07-09 03:28:00,61.1,54.2,29.75,NNW,333,0.0,2.0,78,0.00,,---,0.00,VWS V14.01,2013-07-09 09:28:00,
2013-07-09 03:30:00,61.0,54.1,29.75,NNW,333,2.0,2.0,78,0.00,,---,0.00,VWS V14.01,2013-07-09 09:30:00,
2013-07-09 03:33:00,61.0,54.1,29.75,NNW,333,1.0,2.0,78,0.00,,---,0.00,VWS V14.01,2013-07-09 09:33:00,
2013-07-09 03:38:00,60.9,54.0,29.75,NNW,333,0.0,2.0,78,0.00,,---,0.00,VWS V14.01,2013-07-09 09:38:00,
2013-07-09 03:40:00,60.8,53.9,29.75,NNW,333,0.0,2.0,78,0.00,,---,0.00,VWS V14.01,2013-07-09 09:40:00,
2013-07-09 03:43:00,60.8,53.9,29.75,NNW,333,0.0,0.0,78,0.00,,---,0.00,VWS V14.01,2013-07-09 09:43:00,
2013-07-09 03:48:00,60.7,53.8,29.75,NNW,333,0.0,1.0,78,0.00,,---,0.00,VWS V14.01,2013-07-09 09:48:00,
2013-07-09 03:50:00,60.6,54.1,29.75,NNW,333,0.0,1.0,79,0.00,,---,0.00,VWS V14.01,2013-07-09 09:50:00,
2013-07-09 03:53:00,60.6,54.1,29.74,NNW,333,0.0,0.0,79,0.00,,---,0.00,VWS V14.01,2013-07-09 09:53:00,
2013-07-09 03:58:00,60.5,54.0,29.75,NNW,333,0.0,0.0,79,0.00,,---,0.00,VWS V14.01,2013-07-09 09:58:00,
2013-07-09 04:00:00,60.4,54.2,29.75,NNW,333,0.0,0.0,80,0.00,,---,0.00,VWS V14.01,2013-07-09 10:00:00,
2013-07-09 04:03:00,60.4,54.2,29.76,NNW,333,1.0,2.0,80,0.00,,---,0.00,VWS V14.01,2013-07-09 10:03:00,
2013-07-09 04:08:00,60.3,53.8,29.77,NNW,333,3.0,3.0,79,0.00,,---,0.00,VWS V14.01,2013-07-09 10:08:00,
2013-07-09 04:10:00,60.2,53.7,29.76,NNW,333,0.0,3.0,79,0.00,,---,0.00,VWS V14.01,2013-07-09 10:10:00,
2013-07-09 04:13:00,60.2,53.7,29.76,NNW,333,0.0,0.0,79,0.00,,---,0.00,VWS V14.01,2013-07-09 10:13:00,
2013-07-09 04:18:00,60.1,53.6,29.76,NNW,333,0.0,1.0,79,0.00,,---,0.00,VWS V14.01,2013-07-09 10:18:00,
2013-07-09 04:20:00,60.0,53.8,29.76,NNW,333,0.0,1.0,80,0.00,,---,0.00,VWS V14.01,2013-07-09 10:20:00,
2013-07-09 04:23:00,59.9,53.7,29.76,NNW,333,0.0,0.0,80,0.00,,---,0.00,VWS V14.01,2013-07-09 10:23:00,
2013-07-09 04:28:00,59.8,54.0,29.77,NNW,333,0.0,2.0,81,0.00,,---,0.00,VWS V14.01,2013-07-09 10:28:00,
2013-07-09 04:30:00,59.7,53.9,29.77,NNW,333,1.0,2.0,81,0.00,,---,0.00,VWS V14.01,2013-07-09 10:30:00,
2013-07-09 04:33:00,59.7,53.9,29.77,NNW,333,1.0,2.0,81,0.00,,---,0.00,VWS V14.01,2013-07-09 10:33:00,
2013-07-09 04:38:00,59.6,54.1,29.76,NNW,333,0.0,3.0,82,0.00,,---,0.00,VWS V14.01,2013-07-09 10:38:00,
2013-07-09 04:40:00,59.4,53.9,29.77,NNW,333,0.0,3.0,82,0.00,,---,0.00,VWS V14.01,2013-07-09 10:40:00,
2013-07-09 04:43:00,59.4,53.9,29.78,NNW,333,0.0,0.0,82,0.00,,---,0.00,VWS V14.01,2013-07-09 10:43:00,
2013-07-09 04:48:00,59.2,53.7,29.78,NNW,333,0.0,0.0,82,0.00,,---,0.00,VWS V14.01,2013-07-09 10:48:00,
2013-07-09 04:50:00,59.1,53.6,29.78,NNW,333,0.0,1.0,82,0.00,,---,0.00,VWS V14.01,2013-07-09 10:50:00,
2013-07-09 04:53:00,59.1,53.6,29.78,NNW,333,0.0,0.0,82,0.00,,---,0.00,VWS V14.01,2013-07-09 10:53:00,
2013-07-09 04:58:00,59.1,53.6,29.78,NNW,333,0.0,1.0,82,0.00,,---,0.00,VWS V14.01,2013-07-09 10:58:00,
2013-07-09 05:00:00,59.1,54.0,29.78,NNW,333,0.0,1.0,83,0.00,,---,0.00,VWS V14.01,2013-07-09 11:00:00,
2013-07-09 05:03:00,59.1,54.0,29.78,NNW,333,0.0,0.0,83,0.00,,---,0.00,VWS V14.01,2013-07-09 11:03:00,
2013-07-09 05:08:00,59.1,54.0,29.78,NNW,333,0.0,0.0,83,0.00,,---,0.00,VWS V14.01,2013-07-09 11:08:00,
2013-07-09 05:10:00,58.9,53.8,29.78,NNW,333,0.0,1.0,83,0.00,,---,0.00,VWS V14.01,2013-07-09 11:10:00,
2013-07-09 05:13:00,58.9,53.8,29.78,NNW,333,0.0,0.0,83,0.00,,---,0.00,VWS V14.01,2013-07-09 11:13:00,
2013-07-09 05:18:00,58.7,53.2,29.78,NNW,333,0.0,0.0,82,0.00,,---,0.00,VWS V14.01,2013-07-09 11:18:00,
2013-07-09 05:20:00,58.5,53.0,29.78,NNW,333,0.0,1.0,82,0.00,,---,0.00,VWS V14.01,2013-07-09 11:20:00,
2013-07-09 05:23:00,58.5,53.0,29.78,NNW,333,0.0,0.0,82,0.00,,---,0.00,VWS V14.01,2013-07-09 11:23:00,
2013-07-09 05:28:00,58.4,52.9,29.80,NNW,333,0.0,3.0,82,0.00,,---,0.00,VWS V14.01,2013-07-09 11:28:00,
2013-07-09 05:30:00,58.3,53.2,29.80,NNW,333,0.0,3.0,83,0.00,,---,0.00,VWS V14.01,2013-07-09 11:30:00,
2013-07-09 05:33:00,58.3,53.2,29.80,NNW,333,0.0,0.0,83,0.00,,---,0.00,VWS V14.01,2013-07-09 11:33:00,
2013-07-09 05:38:00,58.2,53.4,29.80,NNW,333,1.0,2.0,84,0.00,,---,0.00,VWS V14.01,2013-07-09 11:38:00,
2013-07-09 05:40:00,58.2,53.4,29.80,NNW,333,0.0,2.0,84,0.00,,---,0.00,VWS V14.01,2013-07-09 11:40:00,
2013-07-09 05:43:00,58.2,53.4,29.80,NNW,333,0.0,0.0,84,0.00,,---,0.00,VWS V14.01,2013-07-09 11:43:00,
2013-07-09 05:48:00,58.2,53.7,29.80,NNW,333,0.0,1.0,85,0.00,,---,0.00,VWS V14.01,2013-07-09 11:48:00,
2013-07-09 05:50:00,58.2,53.7,29.80,NNW,333,2.0,2.0,85,0.00,,---,0.00,VWS V14.01,2013-07-09 11:50:00,
2013-07-09 05:53:00,58.2,53.7,29.80,NNW,333,1.0,2.0,85,0.00,,---,0.00,VWS V14.01,2013-07-09 11:53:00,
2013-07-09 05:58:00,58.2,53.7,29.80,NNW,333,0.0,2.0,85,0.00,,---,0.00,VWS V14.01,2013-07-09 11:58:00,
2013-07-09 06:00:00,58.2,53.7,29.80,NNW,333,0.0,2.0,85,0.00,,---,0.00,VWS V14.01,2013-07-09 12:00:00,
2013-07-09 06:03:00,58.2,53.7,29.81,NNW,333,2.0,2.0,85,0.00,,---,0.00,VWS V14.01,2013-07-09 12:03:00,
2013-07-09 06:08:00,58.2,54.0,29.82,NNW,333,1.0,2.0,86,0.00,,---,0.00,VWS V14.01,2013-07-09 12:08:00,
2013-07-09 06:10:00,58.3,54.1,29.82,NNW,333,0.0,2.0,86,0.00,,---,0.00,VWS V14.01,2013-07-09 12:10:00,
2013-07-09 06:13:00,58.3,54.1,29.82,NNW,333,2.0,2.0,86,0.00,,---,0.00,VWS V14.01,2013-07-09 12:13:00,
2013-07-09 06:18:00,58.5,54.3,29.82,NNW,333,0.0,2.0,86,0.00,,---,0.00,VWS V14.01,2013-07-09 12:18:00,
2013-07-09 06:20:00,58.6,54.4,29.82,NNW,333,0.0,3.0,86,0.00,,---,0.00,VWS V14.01,2013-07-09 12:20:00,
2013-07-09 06:23:00,58.6,54.4,29.83,NNW,333,0.0,0.0,86,0.00,,---,0.00,VWS V14.01,2013-07-09 12:23:00,
2013-07-09 06:27:00,58.9,54.7,29.83,NNW,333,0.0,1.0,86,0.00,,---,0.00,VWS V14.01,2013-07-09 12:27:00,
2013-07-09 06:30:00,59.1,54.9,29.83,NNW,333,0.0,1.0,86,0.00,,---,0.00,VWS V14.01,2013-07-09 12:30:00,
2013-07-09 06:33:00,59.1,54.9,29.83,NNW,333,0.0,0.0,86,0.00,,---,0.00,VWS V14.01,2013-07-09 12:33:00,
2013-07-09 06:38:00,59.1,54.9,29.83,NNW,333,0.0,1.0,86,0.00,,---,0.00,VWS V14.01,2013-07-09 12:38:00,
2013-07-09 06:40:00,59.3,55.4,29.83,NNW,333,1.0,1.0,87,0.00,,---,0.00,VWS V14.01,2013-07-09 12:40:00,
2013-07-09 06:42:00,59.4,55.5,29.83,NNW,333,1.0,1.0,87,0.00,,---,0.00,VWS V14.01,2013-07-09 12:42:00,
2013-07-09 06:47:00,59.8,55.9,29.82,NNW,333,0.0,1.0,87,0.00,,---,0.00,VWS V14.01,2013-07-09 12:47:00,
2013-07-09 06:50:00,60.1,55.9,29.82,NNW,333,0.0,1.0,86,0.00,,---,0.00,VWS V14.01,2013-07-09 12:50:00,
2013-07-09 06:52:00,60.1,55.9,29.82,NNW,333,0.0,0.0,86,0.00,,---,0.00,VWS V14.01,2013-07-09 12:52:00,
2013-07-09 06:57:00,60.5,56.3,29.81,NNW,333,0.0,2.0,86,0.00,,---,0.00,VWS V14.01,2013-07-09 12:57:00,
2013-07-09 07:00:00,60.7,56.2,29.82,NNW,333,0.0,2.0,85,0.00,,---,0.00,VWS V14.01,2013-07-09 13:00:00,
2013-07-09 07:02:00,60.7,56.2,29.82,NNW,333,0.0,0.0,85,0.00,,---,0.00,VWS V14.01,2013-07-09 13:02:00,
2013-07-09 07:07:00,61.0,55.8,29.82,NNW,333,0.0,0.0,83,0.00,,---,0.00,VWS V14.01,2013-07-09 13:07:00,
2013-07-09 07:10:00,61.3,56.1,29.81,NNW,333,0.0,0.0,83,0.00,,---,0.00,VWS V14.01,2013-07-09 13:10:00,
2013-07-09 07:12:00,61.4,56.2,29.82,NNW,333,0.0,0.0,83,0.00,,---,0.00,VWS V14.01,2013-07-09 13:12:00,
2013-07-09 07:17:00,61.8,55.9,29.82,NNW,333,0.0,0.0,81,0.00,,---,0.00,VWS V14.01,2013-07-09 13:17:00,
2013-07-09 07:20:00,62.2,56.0,29.82,NNW,333,0.0,0.0,80,0.00,,---,0.00,VWS V14.01,2013-07-09 13:20:00,
2013-07-09 07:22:00,62.2,56.0,29.82,NNW,333,0.0,0.0,80,0.00,,---,0.00,VWS V14.01,2013-07-09 13:22:00,
2013-07-09 07:27:00,62.7,56.1,29.82,NNW,333,0.0,0.0,79,0.00,,---,0.00,VWS V14.01,2013-07-09 13:27:00,
2013-07-09 07:30:00,63.1,56.5,29.82,NNW,333,0.0,0.0,79,0.00,,---,0.00,VWS V14.01,2013-07-09 13:30:00,
2013-07-09 07:32:00,63.1,56.5,29.81,NNW,333,0.0,0.0,79,0.00,,---,0.00,VWS V14.01,2013-07-09 13:32:00,
2013-07-09 07:37:00,63.7,57.1,29.81,NNW,333,0.0,1.0,79,0.00,,---,0.00,VWS V14.01,2013-07-09 13:37:00,
2013-07-09 07:40:00,64.1,57.1,29.81,NNW,333,0.0,1.0,78,0.00,,---,0.00,VWS V14.01,2013-07-09 13:40:00,
2013-07-09 07:42:00,64.2,57.2,29.81,NNW,333,0.0,0.0,78,0.00,,---,0.00,VWS V14.01,2013-07-09 13:42:00,
2013-07-09 07:47:00,64.6,56.9,29.80,NNW,333,0.0,1.0,76,0.00,,---,0.00,VWS V14.01,2013-07-09 13:47:00,
2013-07-09 07:50:00,65.1,57.4,29.81,NNW,333,1.0,1.0,76,0.00,,---,0.00,VWS V14.01,2013-07-09 13:50:00,
2013-07-09 07:52:00,65.2,57.5,29.81,NNW,333,0.0,1.0,76,0.00,,---,0.00,VWS V14.01,2013-07-09 13:52:00,
2013-07-09 07:57:00,65.7,57.6,29.81,NNW,333,1.0,1.0,75,0.00,,---,0.00,VWS V14.01,2013-07-09 13:57:00,
2013-07-09 08:00:00,66.3,57.4,29.81,NNW,333,0.0,1.0,73,0.00,,---,0.00,VWS V14.01,2013-07-09 14:00:00,
2013-07-09 08:02:00,66.3,57.4,29.82,NNW,333,0.0,0.0,73,0.00,,---,0.00,VWS V14.01,2013-07-09 14:02:00,
2013-07-09 08:07:00,67.0,58.1,29.82,NNW,333,0.0,2.0,73,0.00,,---,0.00,VWS V14.01,2013-07-09 14:07:00,
2013-07-09 08:10:00,67.7,59.1,29.81,NNW,333,0.0,2.0,74,0.00,,---,0.00,VWS V14.01,2013-07-09 14:10:00,
2013-07-09 08:12:00,67.7,59.1,29.81,NNW,333,0.0,0.0,74,0.00,,---,0.00,VWS V14.01,2013-07-09 14:12:00,
2013-07-09 08:17:00,68.2,58.0,29.81,NNW,333,0.0,1.0,70,0.00,,---,0.00,VWS V14.01,2013-07-09 14:17:00,
2013-07-09 08:20:00,68.9,57.9,29.81,NNW,333,0.0,2.0,68,0.00,,---,0.00,VWS V14.01,2013-07-09 14:20:00,
2013-07-09 08:22:00,69.0,58.0,29.81,NNW,333,2.0,2.0,68,0.00,,---,0.00,VWS V14.01,2013-07-09 14:22:00,
2013-07-09 08:27:00,69.7,57.8,29.80,NNW,333,0.0,2.0,66,0.00,,---,0.00,VWS V14.01,2013-07-09 14:27:00,
2013-07-09 08:30:00,70.4,58.1,29.80,NNW,333,0.0,2.0,65,0.00,,---,0.00,VWS V14.01,2013-07-09 14:30:00,
2013-07-09 08:32:00,70.4,58.1,29.80,NNW,333,0.0,0.0,65,0.00,,---,0.00,VWS V14.01,2013-07-09 14:32:00,
2013-07-09 08:37:00,71.1,57.0,29.80,NNW,333,0.0,1.0,61,0.00,,---,0.00,VWS V14.01,2013-07-09 14:37:00,
2013-07-09 08:40:00,71.7,56.6,29.80,NNW,333,0.0,2.0,59,0.00,,---,0.00,VWS V14.01,2013-07-09 14:40:00,
2013-07-09 08:42:00,71.7,56.6,29.80,NNW,333,0.0,2.0,59,0.00,,---,0.00,VWS V14.01,2013-07-09 14:42:00,
2013-07-09 08:47:00,72.6,57.0,29.79,NNW,333,0.0,2.0,58,0.00,,---,0.00,VWS V14.01,2013-07-09 14:47:00,
2013-07-09 08:50:00,73.3,56.2,29.80,NNW,333,0.0,2.0,55,0.00,,---,0.00,VWS V14.01,2013-07-09 14:50:00,
2013-07-09 08:53:00,73.4,56.3,29.80,NNW,333,0.0,0.0,55,0.00,,---,0.00,VWS V14.01,2013-07-09 14:53:00,
2013-07-09 08:58:00,74.2,56.0,29.79,NNW,333,0.0,0.0,53,0.00,,---,0.00,VWS V14.01,2013-07-09 14:58:00,
2013-07-09 09:00:00,74.9,57.2,29.79,NNW,333,0.0,2.0,54,0.00,,---,0.00,VWS V14.01,2013-07-09 15:00:00,
2013-07-09 09:03:00,74.9,56.6,29.80,NNW,333,0.0,1.0,53,0.00,,---,0.00,VWS V14.01,2013-07-09 15:03:00,
2013-07-09 09:08:00,75.7,59.4,29.79,NNW,333,0.0,1.0,57,0.00,,---,0.00,VWS V14.01,2013-07-09 15:08:00,
2013-07-09 09:10:00,76.5,55.9,29.79,NNW,333,1.0,2.0,49,0.00,,---,0.00,VWS V14.01,2013-07-09 15:10:00,
2013-07-09 09:13:00,76.6,56.0,29.79,NNW,333,1.0,3.0,49,0.00,,---,0.00,VWS V14.01,2013-07-09 15:13:00,
2013-07-09 09:18:00,77.6,58.6,29.78,NNW,333,0.0,3.0,52,0.00,,---,0.00,VWS V14.01,2013-07-09 15:18:00,
2013-07-09 09:20:00,78.5,57.2,29.78,NNW,333,0.0,3.0,48,0.00,,---,0.00,VWS V14.01,2013-07-09 15:20:00,
2013-07-09 09:23:00,78.7,57.4,29.77,NNW,333,2.0,2.0,48,0.00,,---,0.00,VWS V14.01,2013-07-09 15:23:00,
2013-07-09 09:28:00,79.5,56.3,29.78,NNW,333,0.0,2.0,45,0.00,,---,0.00,VWS V14.01,2013-07-09 15:28:00,
2013-07-09 09:30:00,80.5,58.4,29.77,NNW,333,1.0,2.0,47,0.00,,---,0.00,VWS V14.01,2013-07-09 15:30:00,
2013-07-09 09:33:00,80.7,58.6,29.77,NNW,333,0.0,1.0,47,0.00,,---,0.00,VWS V14.01,2013-07-09 15:33:00,
2013-07-09 09:38:00,82.1,56.8,29.75,NNW,333,1.0,2.0,42,0.00,,---,0.00,VWS V14.01,2013-07-09 15:38:00,
2013-07-09 09:40:00,83.0,54.1,29.77,NNW,333,0.0,2.0,37,0.00,,---,0.00,VWS V14.01,2013-07-09 15:40:00,
2013-07-09 09:43:00,83.2,54.2,29.76,NNW,333,0.0,0.0,37,0.00,,---,0.00,VWS V14.01,2013-07-09 15:43:00,
2013-07-09 09:48:00,84.1,55.8,29.75,NNW,333,0.0,2.0,38,0.00,,---,0.00,VWS V14.01,2013-07-09 15:48:00,
2013-07-09 09:50:00,84.8,56.4,29.75,North,360,1.0,4.0,38,0.00,,---,0.00,VWS V14.01,2013-07-09 15:50:00,
2013-07-09 09:53:00,84.9,55.8,29.75,North,360,2.0,2.0,37,0.00,,---,0.00,VWS V14.01,2013-07-09 15:53:00,
2013-07-09 09:58:00,85.4,54.7,29.75,North,9,0.0,2.0,35,0.00,,---,0.00,VWS V14.01,2013-07-09 15:58:00,
2013-07-09 10:00:00,85.9,55.9,29.74,ESE,121,0.0,4.0,36,0.00,,---,0.00,VWS V14.01,2013-07-09 16:00:00,
2013-07-09 10:03:00,85.9,55.9,29.74,ESE,121,0.0,4.0,36,0.00,,---,0.00,VWS V14.01,2013-07-09 16:03:00,
2013-07-09 10:08:00,86.5,57.2,29.76,ESE,121,0.0,3.0,37,0.00,,---,0.00,VWS V14.01,2013-07-09 16:08:00,
2013-07-09 10:10:00,86.9,60.4,29.76,SE,130,2.0,3.0,41,0.00,,---,0.00,VWS V14.01,2013-07-09 16:10:00,
2013-07-09 10:13:00,86.9,60.4,29.76,SE,130,0.0,2.0,41,0.00,,---,0.00,VWS V14.01,2013-07-09 16:13:00,
2013-07-09 10:18:00,87.2,60.0,29.75,SE,134,0.0,4.0,40,0.00,,---,0.00,VWS V14.01,2013-07-09 16:18:00,
2013-07-09 10:20:00,87.4,58.7,29.76,SE,135,0.0,4.0,38,0.00,,---,0.00,VWS V14.01,2013-07-09 16:20:00,
2013-07-09 10:23:00,87.4,56.4,29.76,SE,132,1.0,1.0,35,0.00,,---,0.00,VWS V14.01,2013-07-09 16:23:00,
2013-07-09 10:28:00,87.9,55.2,29.75,East,82,3.0,4.0,33,0.00,,---,0.00,VWS V14.01,2013-07-09 16:28:00,
2013-07-09 10:30:00,88.2,59.4,29.75,East,85,2.0,4.0,38,0.00,,---,0.00,VWS V14.01,2013-07-09 16:30:00,
2013-07-09 10:33:00,88.3,58.0,29.75,East,91,1.0,3.0,36,0.00,,---,0.00,VWS V14.01,2013-07-09 16:33:00,
2013-07-09 10:38:00,88.6,56.7,29.75,SE,143,4.0,4.0,34,0.00,,---,0.00,VWS V14.01,2013-07-09 16:38:00,
2013-07-09 10:40:00,88.6,56.7,29.75,South,180,5.0,6.0,34,0.00,,---,0.00,VWS V14.01,2013-07-09 16:40:00,
2013-07-09 10:43:00,88.6,55.8,29.76,SW,220,2.0,5.0,33,0.00,,---,0.00,VWS V14.01,2013-07-09 16:43:00,
2013-07-09 10:48:00,88.7,55.9,29.76,South,171,3.0,5.0,33,0.00,,---,0.00,VWS V14.01,2013-07-09 16:48:00,
2013-07-09 10:50:00,89.0,56.2,29.74,SSE,167,2.0,6.0,33,0.00,,---,0.00,VWS V14.01,2013-07-09 16:50:00,
2013-07-09 10:53:00,89.1,57.9,29.75,SSE,167,3.0,3.0,35,0.00,,---,0.00,VWS V14.01,2013-07-09 16:53:00,
2013-07-09 10:58:00,89.3,58.9,29.75,South,173,0.0,5.0,36,0.00,,---,0.00,VWS V14.01,2013-07-09 16:58:00,
2013-07-09 11:00:00,89.7,56.8,29.74,South,173,1.0,5.0,33,0.00,,---,0.00,VWS V14.01,2013-07-09 17:00:00,
2013-07-09 11:03:00,89.8,56.9,29.75,South,173,5.0,5.0,33,0.00,,---,0.00,VWS V14.01,2013-07-09 17:03:00,
2013-07-09 11:08:00,90.2,57.2,29.75,SSE,164,1.0,5.0,33,0.00,,---,0.00,VWS V14.01,2013-07-09 17:08:00,
2013-07-09 11:10:00,90.4,59.0,29.75,SSE,165,1.0,5.0,35,0.00,,---,0.00,VWS V14.01,2013-07-09 17:10:00,
2013-07-09 11:13:00,90.5,59.1,29.76,SSE,165,0.0,1.0,35,0.00,,---,0.00,VWS V14.01,2013-07-09 17:13:00,
2013-07-09 11:18:00,90.9,54.3,29.75,SE,138,5.0,6.0,29,0.00,,---,0.00,VWS V14.01,2013-07-09 17:18:00,
2013-07-09 11:20:00,91.2,54.5,29.75,SE,138,1.0,6.0,29,0.00,,---,0.00,VWS V14.01,2013-07-09 17:20:00,
2013-07-09 11:23:00,91.1,56.3,29.75,SE,138,1.0,2.0,31,0.00,,---,0.00,VWS V14.01,2013-07-09 17:23:00,
2013-07-09 11:28:00,91.3,57.3,29.74,SE,133,7.0,7.0,32,0.00,,---,0.00,VWS V14.01,2013-07-09 17:28:00,
2013-07-09 11:30:00,91.6,51.9,29.74,SE,129,0.0,8.0,26,0.00,,---,0.00,VWS V14.01,2013-07-09 17:30:00,
2013-07-09 11:33:00,91.6,55.8,29.75,SE,129,3.0,3.0,30,0.00,,---,0.00,VWS V14.01,2013-07-09 17:33:00,
2013-07-09 11:38:00,91.6,53.9,29.75,SE,136,1.0,8.0,28,0.00,,---,0.00,VWS V14.01,2013-07-09 17:38:00,
2013-07-09 11:40:00,91.1,52.5,29.75,SE,136,2.0,8.0,27,0.00,,---,0.00,VWS V14.01,2013-07-09 17:40:00,
2013-07-09 11:43:00,91.0,52.4,29.74,SE,136,0.0,2.0,27,0.00,,---,0.00,VWS V14.01,2013-07-09 17:43:00,
2013-07-09 11:48:00,91.6,58.5,29.74,SSE,155,3.0,7.0,33,0.00,,---,0.00,VWS V14.01,2013-07-09 17:48:00,
2013-07-09 11:50:00,92.5,57.5,29.73,SSE,156,5.0,7.0,31,0.00,,---,0.00,VWS V14.01,2013-07-09 17:50:00,
2013-07-09 11:53:00,92.6,57.6,29.73,SSE,155,0.0,5.0,31,0.00,,---,0.00,VWS V14.01,2013-07-09 17:53:00,
2013-07-09 11:58:00,93.1,56.2,29.73,SSE,155,0.0,5.0,29,0.00,,---,0.00,VWS V14.01,2013-07-09 17:58:00,
2013-07-09 12:00:00,93.2,54.3,29.73,SSE,162,3.0,5.0,27,0.00,,---,0.00,VWS V14.01,2013-07-09 18:00:00,
2013-07-09 12:03:00,93.2,58.1,29.74,South,169,4.0,5.0,31,0.00,,---,0.00,VWS V14.01,2013-07-09 18:03:00,
2013-07-09 12:08:00,93.0,54.1,29.74,South,169,0.0,5.0,27,0.00,,---,0.00,VWS V14.01,2013-07-09 18:08:00,
2013-07-09 12:10:00,92.5,52.7,29.74,South,169,0.0,5.0,26,0.00,,---,0.00,VWS V14.01,2013-07-09 18:10:00,
2013-07-09 12:13:00,92.6,58.5,29.73,South,169,0.0,1.0,32,0.00,,---,0.00,VWS V14.01,2013-07-09 18:13:00,
2013-07-09 12:18:00,92.7,52.8,29.74,SSE,167,0.0,4.0,26,0.00,,---,0.00,VWS V14.01,2013-07-09 18:18:00,
2013-07-09 12:20:00,92.3,53.5,29.75,SE,142,2.0,10.0,27,0.00,,---,0.00,VWS V14.01,2013-07-09 18:20:00,
2013-07-09 12:23:00,92.2,53.4,29.75,SE,142,0.0,3.0,27,0.00,,---,0.00,VWS V14.01,2013-07-09 18:23:00,
2013-07-09 12:28:00,91.6,59.3,29.73,SE,140,6.0,7.0,34,0.00,,---,0.00,VWS V14.01,2013-07-09 18:28:00,
2013-07-09 12:30:00,91.7,52.0,29.75,SE,138,2.0,7.0,26,0.00,,---,0.00,VWS V14.01,2013-07-09 18:30:00,
2013-07-09 12:33:00,91.8,48.8,29.74,SE,138,0.0,3.0,23,0.00,,---,0.00,VWS V14.01,2013-07-09 18:33:00,
2013-07-09 12:38:00,92.1,54.3,29.74,SE,138,0.0,3.0,28,0.00,,---,0.00,VWS V14.01,2013-07-09 18:38:00,
2013-07-09 12:40:00,92.1,56.2,29.74,SE,138,0.0,3.0,30,0.00,,---,0.00,VWS V14.01,2013-07-09 18:40:00,
2013-07-09 12:43:00,92.1,56.2,29.73,SE,138,0.0,0.0,30,0.00,,---,0.00,VWS V14.01,2013-07-09 18:43:00,
2013-07-09 12:48:00,92.2,53.4,29.74,SE,136,3.0,7.0,27,0.00,,---,0.00,VWS V14.01,2013-07-09 18:48:00,
2013-07-09 12:50:00,92.5,54.7,29.73,SE,135,2.0,7.0,28,0.00,,---,0.00,VWS V14.01,2013-07-09 18:50:00,
2013-07-09 12:53:00,92.6,50.6,29.73,SE,135,3.0,4.0,24,0.00,,---,0.00,VWS V14.01,2013-07-09 18:53:00,
2013-07-09 12:58:00,93.6,52.5,29.73,SE,141,1.0,4.0,25,0.00,,---,0.00,VWS V14.01,2013-07-09 18:58:00,
2013-07-09 13:00:00,93.8,52.7,29.73,SSE,160,1.0,7.0,25,0.00,,---,0.00,VWS V14.01,2013-07-09 19:00:00,
2013-07-09 13:03:00,93.8,52.7,29.73,SSE,160,1.0,1.0,25,0.00,,---,0.00,VWS V14.01,2013-07-09 19:03:00,
2013-07-09 13:08:00,93.5,47.8,29.74,SSE,161,1.0,5.0,21,0.00,,---,0.00,VWS V14.01,2013-07-09 19:08:00,
2013-07-09 13:10:00,93.8,54.8,29.73,SSE,159,4.0,6.0,27,0.00,,---,0.00,VWS V14.01,2013-07-09 19:10:00,
2013-07-09 13:13:00,93.9,54.9,29.73,SSE,159,4.0,4.0,27,0.00,,---,0.00,VWS V14.01,2013-07-09 19:13:00,
2013-07-09 13:18:00,94.0,49.4,29.73,SSE,163,1.0,6.0,22,0.00,,---,0.00,VWS V14.01,2013-07-09 19:18:00,
2013-07-09 13:20:00,93.8,51.6,29.73,SSE,163,0.0,6.0,24,0.00,,---,0.00,VWS V14.01,2013-07-09 19:20:00,
2013-07-09 13:23:00,93.8,53.8,29.73,SSE,163,0.0,0.0,26,0.00,,---,0.00,VWS V14.01,2013-07-09 19:23:00,
2013-07-09 13:28:00,94.0,49.4,29.74,SE,125,4.0,6.0,22,0.00,,---,0.00,VWS V14.01,2013-07-09 19:28:00,
2013-07-09 13:30:00,94.7,50.0,29.72,SSE,167,5.0,7.0,22,0.00,,---,0.00,VWS V14.01,2013-07-09 19:30:00,
2013-07-09 13:33:00,94.8,50.1,29.73,SSE,167,1.0,5.0,22,0.00,,---,0.00,VWS V14.01,2013-07-09 19:33:00,
2013-07-09 13:38:00,95.3,50.5,29.72,SE,124,4.0,6.0,22,0.00,,---,0.00,VWS V14.01,2013-07-09 19:38:00,
2013-07-09 13:40:00,95.3,50.5,29.72,South,191,2.0,10.0,22,0.00,,---,0.00,VWS V14.01,2013-07-09 19:40:00,
2013-07-09 13:43:00,95.3,50.5,29.72,SSW,192,1.0,2.0,22,0.00,,---,0.00,VWS V14.01,2013-07-09 19:43:00,
2013-07-09 13:48:00,94.9,47.6,29.72,East,99,3.0,10.0,20,0.00,,---,0.00,VWS V14.01,2013-07-09 19:48:00,
2013-07-09 13:50:00,94.5,53.3,29.72,ESE,103,1.0,10.0,25,0.00,,---,0.00,VWS V14.01,2013-07-09 19:50:00,
2013-07-09 13:53:00,94.5,55.4,29.72,SSE,151,3.0,3.0,27,0.00,,---,0.00,VWS V14.01,2013-07-09 19:53:00,
2013-07-09 13:58:00,95.0,49.0,29.72,South,170,2.0,4.0,21,0.00,,---,0.00,VWS V14.01,2013-07-09 19:58:00,
2013-07-09 14:00:00,95.7,52.0,29.71,SSE,167,1.0,5.0,23,0.00,,---,0.00,VWS V14.01,2013-07-09 20:00:00,
2013-07-09 14:03:00,95.8,52.1,29.71,South,180,4.0,4.0,23,0.00,,---,0.00,VWS V14.01,2013-07-09 20:03:00,
2013-07-09 14:08:00,96.6,55.0,29.72,South,190,0.0,5.0,25,0.00,,---,0.00,VWS V14.01,2013-07-09 20:08:00,
2013-07-09 14:10:00,97.0,48.0,29.71,SE,134,3.0,5.0,19,0.00,,---,0.00,VWS V14.01,2013-07-09 20:10:00,
2013-07-09 14:12:00,97.0,48.0,29.72,SE,134,1.0,3.0,19,0.00,,---,0.00,VWS V14.01,2013-07-09 20:12:00,
2013-07-09 14:17:00,96.7,49.1,29.72,SE,135,9.0,9.0,20,0.00,,---,0.00,VWS V14.01,2013-07-09 20:17:00,
2013-07-09 14:20:00,95.7,50.8,29.71,SE,131,2.0,9.0,22,0.00,,---,0.00,VWS V14.01,2013-07-09 20:20:00,
2013-07-09 14:22:00,95.6,51.9,29.72,SE,131,1.0,2.0,23,0.00,,---,0.00,VWS V14.01,2013-07-09 20:22:00,
2013-07-09 14:27:00,94.7,44.7,29.73,SE,126,1.0,3.0,18,0.00,,---,0.00,VWS V14.01,2013-07-09 20:27:00,
2013-07-09 14:30:00,94.3,47.1,29.73,East,79,0.0,6.0,20,0.00,,---,0.00,VWS V14.01,2013-07-09 20:30:00,
2013-07-09 14:32:00,94.3,47.1,29.72,East,79,0.0,0.0,20,0.00,,---,0.00,VWS V14.01,2013-07-09 20:32:00,
2013-07-09 14:37:00,93.9,52.8,29.72,East,89,0.0,4.0,25,0.00,,---,0.00,VWS V14.01,2013-07-09 20:37:00,
2013-07-09 14:40:00,93.5,50.2,29.72,SE,140,0.0,6.0,23,0.00,,---,0.00,VWS V14.01,2013-07-09 20:40:00,
2013-07-09 14:42:00,93.5,50.2,29.72,SE,140,1.0,1.0,23,0.00,,---,0.00,VWS V14.01,2013-07-09 20:42:00,
2013-07-09 14:47:00,92.8,55.9,29.72,SE,140,0.0,3.0,29,0.00,,---,0.00,VWS V14.01,2013-07-09 20:47:00,
2013-07-09 14:50:00,92.2,55.4,29.73,SSE,147,2.0,5.0,29,0.00,,---,0.00,VWS V14.01,2013-07-09 20:50:00,
2013-07-09 14:52:00,92.2,54.4,29.72,SSE,147,0.0,2.0,28,0.00,,---,0.00,VWS V14.01,2013-07-09 20:52:00,
2013-07-09 14:57:00,91.7,56.8,29.72,SSE,147,0.0,2.0,31,0.00,,---,0.00,VWS V14.01,2013-07-09 20:57:00,
2013-07-09 15:00:00,91.3,57.3,29.73,SSE,147,0.0,3.0,32,0.00,,---,0.00,VWS V14.01,2013-07-09 21:00:00,
2013-07-09 15:02:00,91.3,57.3,29.74,SSE,147,0.0,0.0,32,0.00,,---,0.00,VWS V14.01,2013-07-09 21:02:00,
2013-07-09 15:07:00,91.1,53.5,29.74,SE,146,3.0,4.0,28,0.00,,---,0.00,VWS V14.01,2013-07-09 21:07:00,
2013-07-09 15:10:00,90.9,54.3,29.74,SE,146,0.0,4.0,29,0.00,,---,0.00,VWS V14.01,2013-07-09 21:10:00,
2013-07-09 15:12:00,90.9,54.3,29.74,SE,146,0.0,0.0,29,0.00,,---,0.00,VWS V14.01,2013-07-09 21:12:00,
2013-07-09 15:17:00,90.5,58.3,29.74,SE,146,0.0,1.0,34,0.00,,---,0.00,VWS V14.01,2013-07-09 21:17:00,
2013-07-09 15:20:00,90.2,58.1,29.72,SE,146,0.0,4.0,34,0.00,,---,0.00,VWS V14.01,2013-07-09 21:20:00,
2013-07-09 15:22:00,90.2,55.5,29.73,SE,146,0.0,0.0,31,0.00,,---,0.00,VWS V14.01,2013-07-09 21:22:00,
2013-07-09 15:27:00,90.6,50.0,29.74,SE,146,1.0,1.0,25,0.00,,---,0.00,VWS V14.01,2013-07-09 21:27:00,
2013-07-09 15:30:00,91.4,54.7,29.75,SE,146,0.0,3.0,29,0.00,,---,0.00,VWS V14.01,2013-07-09 21:30:00,
2013-07-09 15:32:00,91.4,54.7,29.74,SE,146,0.0,0.0,29,0.00,,---,0.00,VWS V14.01,2013-07-09 21:32:00,
2013-07-09 15:37:00,91.4,55.6,29.73,SE,146,0.0,3.0,30,0.00,,---,0.00,VWS V14.01,2013-07-09 21:37:00,
2013-07-09 15:40:00,91.3,53.7,29.73,SE,146,0.0,3.0,28,0.00,,---,0.00,VWS V14.01,2013-07-09 21:40:00,
2013-07-09 15:42:00,91.3,53.7,29.74,SE,146,0.0,0.0,28,0.00,,---,0.00,VWS V14.01,2013-07-09 21:42:00,
2013-07-09 15:47:00,91.3,54.6,29.74,SE,146,0.0,1.0,29,0.00,,---,0.00,VWS V14.01,2013-07-09 21:47:00,
2013-07-09 15:50:00,91.3,56.5,29.73,SE,146,0.0,1.0,31,0.00,,---,0.00,VWS V14.01,2013-07-09 21:50:00,
2013-07-09 15:52:00,91.3,53.7,29.72,SE,146,0.0,0.0,28,0.00,,---,0.00,VWS V14.01,2013-07-09 21:52:00,
2013-07-09 15:57:00,91.1,51.5,29.73,SE,146,0.0,1.0,26,0.00,,---,0.00,VWS V14.01,2013-07-09 21:57:00,
2013-07-09 16:00:00,90.8,54.2,29.72,SE,146,0.0,1.0,29,0.00,,---,0.00,VWS V14.01,2013-07-09 22:00:00,
2013-07-09 16:02:00,90.8,54.2,29.73,SE,146,0.0,0.0,29,0.00,,---,0.00,VWS V14.01,2013-07-09 22:02:00,
2013-07-09 16:07:00,90.6,56.7,29.73,SE,146,0.0,0.0,32,0.00,,---,0.00,VWS V14.01,2013-07-09 22:07:00,
2013-07-09 16:10:00,90.4,55.7,29.74,SE,146,0.0,0.0,31,0.00,,---,0.00,VWS V14.01,2013-07-09 22:10:00,
2013-07-09 16:12:00,90.4,55.7,29.74,SE,146,0.0,0.0,31,0.00,,---,0.00,VWS V14.01,2013-07-09 22:12:00,
2013-07-09 16:17:00,90.0,51.6,29.75,SE,146,0.0,0.0,27,0.00,,---,0.00,VWS V14.01,2013-07-09 22:17:00,
2013-07-09 16:20:00,89.7,56.0,29.76,WNW,296,4.0,9.0,32,0.00,,---,0.00,VWS V14.01,2013-07-09 22:20:00,
2013-07-09 16:22:00,89.7,56.0,29.75,WSW,257,5.0,5.0,32,0.00,,---,0.00,VWS V14.01,2013-07-09 22:22:00,
2013-07-09 16:27:00,89.2,45.4,29.76,WNW,300,3.0,21.0,22,0.00,,---,0.00,VWS V14.01,2013-07-09 22:27:00,
2013-07-09 16:30:00,88.6,43.7,29.77,NW,323,8.0,21.0,21,0.00,,---,0.00,VWS V14.01,2013-07-09 22:30:00,
2013-07-09 16:32:00,88.6,43.7,29.77,NW,313,9.0,9.0,21,0.00,,---,0.00,VWS V14.01,2013-07-09 22:32:00,
2013-07-09 16:37:00,88.3,45.8,29.77,NW,316,0.0,24.0,23,0.00,,---,0.00,VWS V14.01,2013-07-09 22:37:00,
2013-07-09 16:40:00,88.2,45.8,29.78,WNW,289,4.0,24.0,23,0.00,,---,0.00,VWS V14.01,2013-07-09 22:40:00,
2013-07-09 16:42:00,88.2,45.8,29.78,WNW,289,4.0,4.0,23,0.00,,---,0.00,VWS V14.01,2013-07-09 22:42:00,
2013-07-09 16:47:00,88.1,46.8,29.78,WNW,290,11.0,13.0,24,0.00,,---,0.00,VWS V14.01,2013-07-09 22:47:00,
2013-07-09 16:50:00,88.0,44.4,29.78,WNW,298,6.0,13.0,22,0.00,,---,0.00,VWS V14.01,2013-07-09 22:50:00,
2013-07-09 16:52:00,88.0,45.6,29.78,WNW,296,7.0,7.0,23,0.00,,---,0.00,VWS V14.01,2013-07-09 22:52:00,
2013-07-09 16:57:00,88.0,46.7,29.78,West,273,2.0,10.0,24,0.00,,---,0.00,VWS V14.01,2013-07-09 22:57:00,
2013-07-09 17:00:00,87.9,48.8,29.78,NW,308,0.0,10.0,26,0.00,,---,0.00,VWS V14.01,2013-07-09 23:00:00,
2013-07-09 17:02:00,87.9,48.8,29.78,NW,308,0.0,0.0,26,0.00,,---,0.00,VWS V14.01,2013-07-09 23:02:00,
2013-07-09 17:07:00,88.0,53.6,29.78,NW,309,0.0,4.0,31,0.00,,---,0.00,VWS V14.01,2013-07-09 23:07:00,
2013-07-09 17:10:00,88.0,54.5,29.78,NW,308,1.0,4.0,32,0.00,,---,0.00,VWS V14.01,2013-07-09 23:10:00,
2013-07-09 17:12:00,88.0,54.5,29.78,NW,308,1.0,4.0,32,0.00,,---,0.00,VWS V14.01,2013-07-09 23:12:00,
2013-07-09 17:17:00,88.2,52.0,29.78,WNW,292,1.0,4.0,29,0.00,,---,0.00,VWS V14.01,2013-07-09 23:17:00,
2013-07-09 17:20:00,88.3,50.1,29.78,South,180,4.0,9.0,27,0.00,,---,0.00,VWS V14.01,2013-07-09 23:20:00,
2013-07-09 17:22:00,88.3,50.1,29.78,South,180,4.0,9.0,27,0.00,,---,0.00,VWS V14.01,2013-07-09 23:22:00,
2013-07-09 17:27:00,88.4,52.1,29.78,SSW,211,3.0,10.0,29,0.00,,---,0.00,VWS V14.01,2013-07-09 23:27:00,
2013-07-09 17:30:00,88.4,50.2,29.77,SSW,194,2.0,10.0,27,0.00,,---,0.00,VWS V14.01,2013-07-09 23:30:00,
2013-07-09 17:32:00,88.4,50.2,29.77,SSW,194,2.0,10.0,27,0.00,,---,0.00,VWS V14.01,2013-07-09 23:32:00,
2013-07-09 17:37:00,88.4,51.2,29.77,SSW,201,0.0,4.0,28,0.00,,---,0.00,VWS V14.01,2013-07-09 23:37:00,
2013-07-09 17:40:00,88.5,57.4,29.76,SSW,198,0.0,4.0,35,0.00,,---,0.00,VWS V14.01,2013-07-09 23:40:00,
2013-07-09 17:42:00,88.5,57.4,29.76,SSW,198,0.0,4.0,35,0.00,,---,0.00,VWS V14.01,2013-07-09 23:42:00,
2013-07-09 17:47:00,88.7,54.2,29.76,SSE,167,2.0,4.0,31,0.00,,---,0.00,VWS V14.01,2013-07-09 23:47:00,
2013-07-09 17:50:00,88.8,52.5,29.77,SSE,154,1.0,5.0,29,0.00,,---,0.00,VWS V14.01,2013-07-09 23:50:00,
2013-07-09 17:52:00,88.8,52.5,29.77,SSE,154,1.0,5.0,29,0.00,,---,0.00,VWS V14.01,2013-07-09 23:52:00,
2013-07-09 17:57:00,88.9,49.6,29.77,SE,140,1.0,6.0,26,0.00,,---,0.00,VWS V14.01,2013-07-09 23:57:00,
2013-07-09 18:00:00,89.1,50.8,29.77,SE,139,1.0,6.0,27,0.00,,---,0.00,VWS V14.01,2013-07-10 00:00:00,
2013-07-09 18:02:00,89.1,50.8,29.77,SE,139,1.0,6.0,27,0.00,,---,0.00,VWS V14.01,2013-07-10 00:02:00,
2013-07-09 18:07:00,89.3,53.8,29.74,SE,139,0.0,3.0,30,0.00,,---,0.00,VWS V14.01,2013-07-10 00:07:00,
2013-07-09 18:10:00,89.4,52.0,29.75,SE,140,0.0,3.0,28,0.00,,---,0.00,VWS V14.01,2013-07-10 00:10:00,
2013-07-09 18:12:00,89.4,52.0,29.75,SE,139,0.0,3.0,28,0.00,,---,0.00,VWS V14.01,2013-07-10 00:12:00,
2013-07-09 18:17:00,89.5,53.1,29.75,SSW,204,0.0,1.0,29,0.00,,---,0.00,VWS V14.01,2013-07-10 00:17:00,
2013-07-09 18:20:00,89.5,55.8,29.75,SSW,204,0.0,1.0,32,0.00,,---,0.00,VWS V14.01,2013-07-10 00:20:00,
2013-07-09 18:22:00,89.5,55.8,29.75,SSW,204,0.0,1.0,32,0.00,,---,0.00,VWS V14.01,2013-07-10 00:22:00,
2013-07-09 18:27:00,89.4,55.7,29.75,SSW,204,1.0,3.0,32,0.00,,---,0.00,VWS V14.01,2013-07-10 00:27:00,
2013-07-09 18:30:00,89.1,54.6,29.76,SSW,204,1.0,3.0,31,0.00,,---,0.00,VWS V14.01,2013-07-10 00:30:00,
2013-07-09 18:32:00,89.1,54.6,29.76,SSW,204,1.0,3.0,31,0.00,,---,0.00,VWS V14.01,2013-07-10 00:32:00,
2013-07-09 18:37:00,88.7,55.1,29.77,WNW,297,10.0,17.0,32,0.00,,---,0.00,VWS V14.01,2013-07-10 00:37:00,
2013-07-09 18:40:00,87.7,49.6,29.79,North,360,18.0,20.0,27,0.00,,---,0.00,VWS V14.01,2013-07-10 00:40:00,
2013-07-09 18:42:00,87.7,49.6,29.79,North,360,18.0,20.0,27,0.00,,---,0.00,VWS V14.01,2013-07-10 00:42:00,
2013-07-09 18:47:00,86.9,48.9,29.78,NW,305,10.0,18.0,27,0.00,,---,0.00,VWS V14.01,2013-07-10 00:47:00,
2013-07-09 18:50:00,86.2,48.3,29.79,NNW,329,9.0,19.0,27,0.00,,---,0.00,VWS V14.01,2013-07-10 00:50:00,
2013-07-09 18:52:00,86.2,48.3,29.79,NNW,329,9.0,19.0,27,0.00,,---,0.00,VWS V14.01,2013-07-10 00:52:00,
2013-07-09 18:57:00,85.7,47.9,29.79,NW,317,5.0,9.0,27,0.00,,---,0.00,VWS V14.01,2013-07-10 00:57:00,
2013-07-09 19:00:00,85.3,47.6,29.79,NW,322,4.0,10.0,27,0.00,,---,0.00,VWS V14.01,2013-07-10 01:00:00,
2013-07-09 19:02:00,85.3,47.6,29.79,NW,322,4.0,10.0,27,0.00,,---,0.00,VWS V14.01,2013-07-10 01:02:00,
2013-07-09 19:07:00,84.9,49.1,29.77,NNW,327,12.0,13.0,29,0.00,,---,0.00,VWS V14.01,2013-07-10 01:07:00,
2013-07-09 19:10:00,84.7,48.0,29.77,NNW,335,4.0,13.0,28,0.00,,---,0.00,VWS V14.01,2013-07-10 01:10:00,
2013-07-09 19:12:00,84.7,48.0,29.77,NNW,335,4.0,13.0,28,0.00,,---,0.00,VWS V14.01,2013-07-10 01:12:00,
2013-07-09 19:17:00,84.4,48.7,29.77,NW,308,5.0,12.0,29,0.00,,---,0.00,VWS V14.01,2013-07-10 01:17:00,
2013-07-09 19:20:00,84.2,49.4,29.77,NW,312,6.0,12.0,30,0.00,,---,0.00,VWS V14.01,2013-07-10 01:20:00,
2013-07-09 19:22:00,84.2,49.4,29.77,NW,315,3.0,12.0,30,0.00,,---,0.00,VWS V14.01,2013-07-10 01:22:00,
2013-07-09 19:27:00,83.9,49.2,29.77,NW,325,3.0,9.0,30,0.00,,---,0.00,VWS V14.01,2013-07-10 01:27:00,
2013-07-09 19:30:00,83.7,49.0,29.77,NW,325,5.0,9.0,30,0.00,,---,0.00,VWS V14.01,2013-07-10 01:30:00,
2013-07-09 19:32:00,83.7,49.0,29.77,NW,325,6.0,9.0,30,0.00,,---,0.00,VWS V14.01,2013-07-10 01:32:00,
2013-07-09 19:37:00,83.4,48.8,29.76,NW,325,1.0,5.0,30,0.00,,---,0.00,VWS V14.01,2013-07-10 01:37:00,
2013-07-09 19:40:00,83.2,48.6,29.77,NW,325,2.0,5.0,30,0.00,,---,0.00,VWS V14.01,2013-07-10 01:40:00,
2013-07-09 19:42:00,83.2,48.6,29.77,NW,325,1.0,5.0,30,0.00,,---,0.00,VWS V14.01,2013-07-10 01:42:00,
2013-07-09 19:47:00,83.0,49.3,29.77,NW,325,2.0,4.0,31,0.00,,---,0.00,VWS V14.01,2013-07-10 01:47:00,
2013-07-09 19:50:00,82.8,49.1,29.77,NW,325,0.0,6.0,31,0.00,,---,0.00,VWS V14.01,2013-07-10 01:50:00,
2013-07-09 19:52:00,82.8,49.1,29.77,NW,325,0.0,6.0,31,0.00,,---,0.00,VWS V14.01,2013-07-10 01:52:00,
2013-07-09 19:57:00,82.5,48.8,29.77,NW,325,0.0,4.0,31,0.00,,---,0.00,VWS V14.01,2013-07-10 01:57:00,
2013-07-09 20:00:00,85.3,47.6,29.79,NW,322,4.0,10.0,27,0.00,,---,0.00,VWS V14.01,2013-07-10 02:00:00,
2013-07-09 20:04:00,82.4,48.8,29.77,NW,325,3.0,4.0,31,0.00,,---,0.00,VWS V14.01,2013-07-10 02:04:00,
2013-07-09 20:09:00,82.0,49.3,29.73,NNW,327,2.0,5.0,32,0.00,,---,0.00,VWS V14.01,2013-07-10 02:09:00,
2013-07-09 20:10:00,81.9,49.2,29.74,NNW,327,2.0,5.0,32,0.00,,---,0.00,VWS V14.01,2013-07-10 02:10:00,
2013-07-09 20:14:00,81.9,49.2,29.74,NNW,327,3.0,3.0,32,0.00,,---,0.00,VWS V14.01,2013-07-10 02:14:00,
2013-07-09 20:19:00,81.7,49.0,29.74,NNW,327,1.0,4.0,32,0.00,,---,0.00,VWS V14.01,2013-07-10 02:19:00,
2013-07-09 20:20:00,81.6,49.7,29.74,NNW,327,0.0,4.0,33,0.00,,---,0.00,VWS V14.01,2013-07-10 02:20:00,
2013-07-09 20:24:00,81.5,49.7,29.74,NNW,327,0.0,0.0,33,0.00,,---,0.00,VWS V14.01,2013-07-10 02:24:00,
2013-07-09 20:29:00,81.3,48.7,29.74,NNW,327,0.0,2.0,32,0.00,,---,0.00,VWS V14.01,2013-07-10 02:29:00,
2013-07-09 20:30:00,81.1,47.6,29.74,NNW,327,2.0,2.0,31,0.00,,---,0.00,VWS V14.01,2013-07-10 02:30:00,
2013-07-09 20:34:00,81.0,50.0,29.74,NNW,331,1.0,4.0,34,0.00,,---,0.00,VWS V14.01,2013-07-10 02:34:00,
2013-07-09 20:39:00,80.7,49.0,29.75,NNW,331,0.0,4.0,33,0.00,,---,0.00,VWS V14.01,2013-07-10 02:39:00,
2013-07-09 20:40:00,80.5,49.6,29.75,NNW,331,3.0,4.0,34,0.00,,---,0.00,VWS V14.01,2013-07-10 02:40:00,
2013-07-09 20:44:00,80.4,49.5,29.76,NNW,331,2.0,3.0,34,0.00,,---,0.00,VWS V14.01,2013-07-10 02:44:00,
2013-07-09 20:49:00,80.1,49.2,29.76,NNW,331,1.0,3.0,34,0.00,,---,0.00,VWS V14.01,2013-07-10 02:49:00,
2013-07-09 20:50:00,79.9,49.0,29.76,NNW,331,1.0,3.0,34,0.00,,---,0.00,VWS V14.01,2013-07-10 02:50:00,
2013-07-09 20:54:00,79.8,49.0,29.76,NNW,331,0.0,1.0,34,0.00,,---,0.00,VWS V14.01,2013-07-10 02:54:00,
2013-07-09 20:59:00,79.5,49.5,29.76,NNW,331,0.0,1.0,35,0.00,,---,0.00,VWS V14.01,2013-07-10 02:59:00,
2013-07-09 21:00:00,79.2,49.2,29.76,NNW,331,1.0,2.0,35,0.00,,---,0.00,VWS V14.01,2013-07-10 03:00:00,
2013-07-09 21:04:00,79.1,49.9,29.72,NNW,331,1.0,3.0,36,0.00,,---,0.00,VWS V14.01,2013-07-10 03:04:00,
2013-07-09 21:09:00,78.8,49.6,29.72,NNW,331,4.0,4.0,36,0.00,,---,0.00,VWS V14.01,2013-07-10 03:09:00,
2013-07-09 21:10:00,78.4,50.0,29.72,NNW,331,2.0,4.0,37,0.00,,---,0.00,VWS V14.01,2013-07-10 03:10:00,
2013-07-09 21:14:00,78.3,49.2,29.72,NNW,331,2.0,4.0,36,0.00,,---,0.00,VWS V14.01,2013-07-10 03:14:00,
2013-07-09 21:19:00,77.9,49.6,29.72,NNW,331,0.0,4.0,37,0.00,,---,0.00,VWS V14.01,2013-07-10 03:19:00,
2013-07-09 21:20:00,77.7,50.1,29.73,NNW,331,1.0,4.0,38,0.00,,---,0.00,VWS V14.01,2013-07-10 03:20:00,
2013-07-09 21:24:00,77.6,50.0,29.73,NNW,331,2.0,3.0,38,0.00,,---,0.00,VWS V14.01,2013-07-10 03:24:00,
2013-07-09 21:29:00,77.2,49.7,29.74,NNW,331,1.0,3.0,38,0.00,,---,0.00,VWS V14.01,2013-07-10 03:29:00,
2013-07-09 21:30:00,77.0,49.5,29.74,NNW,331,0.0,3.0,38,0.00,,---,0.00,VWS V14.01,2013-07-10 03:30:00,
2013-07-09 21:34:00,76.9,50.1,29.74,NNW,331,0.0,1.0,39,0.00,,---,0.00,VWS V14.01,2013-07-10 03:34:00,
2013-07-09 21:39:00,76.4,50.3,29.74,NNW,331,0.0,1.0,40,0.00,,---,0.00,VWS V14.01,2013-07-10 03:39:00,
2013-07-09 21:40:00,76.1,50.7,29.74,NNW,331,0.0,1.0,41,0.00,,---,0.00,VWS V14.01,2013-07-10 03:40:00,
2013-07-09 21:44:00,75.9,50.5,29.74,NNW,331,1.0,1.0,41,0.00,,---,0.00,VWS V14.01,2013-07-10 03:44:00,
2013-07-09 21:49:00,75.6,50.9,29.75,NNW,331,2.0,2.0,42,0.00,,---,0.00,VWS V14.01,2013-07-10 03:49:00,
2013-07-09 21:50:00,75.4,50.1,29.76,NNW,331,0.0,2.0,41,0.00,,---,0.00,VWS V14.01,2013-07-10 03:50:00,
2013-07-09 21:54:00,75.3,50.0,29.76,NNW,331,0.0,0.0,41,0.00,,---,0.00,VWS V14.01,2013-07-10 03:54:00,
2013-07-09 21:59:00,74.9,50.3,29.76,NNW,331,2.0,3.0,42,0.00,,---,0.00,VWS V14.01,2013-07-10 03:59:00,
2013-07-09 22:00:00,74.5,51.2,29.77,NNW,331,1.0,3.0,44,0.00,,---,0.00,VWS V14.01,2013-07-10 04:00:00,
2013-07-09 22:03:00,74.5,52.4,29.75,NNW,331,0.0,1.0,46,0.00,,---,0.00,VWS V14.01,2013-07-10 04:03:00,
2013-07-09 22:04:00,74.3,52.2,29.75,NNW,344,4.0,4.0,46,0.00,,---,0.00,VWS V14.01,2013-07-10 04:04:00,
2013-07-09 22:09:00,73.8,50.5,29.75,NNW,344,1.0,4.0,44,0.00,,---,0.00,VWS V14.01,2013-07-10 04:09:00,
2013-07-09 22:10:00,73.5,49.7,29.75,NNW,344,0.0,4.0,43,0.00,,---,0.00,VWS V14.01,2013-07-10 04:10:00,
2013-07-09 22:14:00,73.4,48.9,29.76,NNW,344,0.0,0.0,42,0.00,,---,0.00,VWS V14.01,2013-07-10 04:14:00,
2013-07-09 22:19:00,73.1,49.3,29.77,NNW,344,0.0,0.0,43,0.00,,---,0.00,VWS V14.01,2013-07-10 04:19:00,
2013-07-09 22:20:00,72.9,49.7,29.77,NNW,344,0.0,0.0,44,0.00,,---,0.00,VWS V14.01,2013-07-10 04:20:00,
2013-07-09 22:24:00,72.7,49.5,29.77,NNW,344,0.0,0.0,44,0.00,,---,0.00,VWS V14.01,2013-07-10 04:24:00,
2013-07-09 22:29:00,72.5,50.0,29.77,NNW,344,0.0,0.0,45,0.00,,---,0.00,VWS V14.01,2013-07-10 04:29:00,
2013-07-09 22:30:00,72.3,50.4,29.77,NNW,344,0.0,0.0,46,0.00,,---,0.00,VWS V14.01,2013-07-10 04:30:00,
2013-07-09 22:34:00,72.2,50.3,29.77,NNW,344,0.0,0.0,46,0.00,,---,0.00,VWS V14.01,2013-07-10 04:34:00,
2013-07-09 22:39:00,71.9,50.6,29.77,NNW,344,1.0,1.0,47,0.00,,---,0.00,VWS V14.01,2013-07-10 04:39:00,
2013-07-09 22:40:00,71.8,50.5,29.78,NNW,344,0.0,2.0,47,0.00,,---,0.00,VWS V14.01,2013-07-10 04:40:00,
2013-07-09 22:44:00,71.7,50.4,29.79,NNW,344,0.0,0.0,47,0.00,,---,0.00,VWS V14.01,2013-07-10 04:44:00,
2013-07-09 22:49:00,71.4,50.7,29.80,NNW,344,0.0,0.0,48,0.00,,---,0.00,VWS V14.01,2013-07-10 04:49:00,
2013-07-09 22:50:00,71.3,50.6,29.80,NNW,344,0.0,2.0,48,0.00,,---,0.00,VWS V14.01,2013-07-10 04:50:00,
2013-07-09 22:54:00,71.2,51.1,29.80,NNW,344,0.0,0.0,49,0.00,,---,0.00,VWS V14.01,2013-07-10 04:54:00,
2013-07-09 22:59:00,70.8,51.3,29.81,NNW,344,0.0,4.0,50,0.00,,---,0.00,VWS V14.01,2013-07-10 04:59:00,
2013-07-09 23:00:00,70.6,50.5,29.81,North,350,3.0,5.0,49,0.00,,---,0.00,VWS V14.01,2013-07-10 05:00:00,
2013-07-09 23:04:00,70.5,50.4,29.79,North,350,3.0,5.0,49,0.00,,---,0.00,VWS V14.01,2013-07-10 05:04:00,
2013-07-09 23:09:00,70.2,49.6,29.80,North,355,0.0,5.0,48,0.00,,---,0.00,VWS V14.01,2013-07-10 05:09:00,
2013-07-09 23:10:00,70.0,49.4,29.80,North,355,1.0,5.0,48,0.00,,---,0.00,VWS V14.01,2013-07-10 05:10:00,
2013-07-09 23:14:00,70.0,49.4,29.80,North,355,0.0,1.0,48,0.00,,---,0.00,VWS V14.01,2013-07-10 05:14:00,
2013-07-09 23:19:00,69.8,49.8,29.80,North,355,0.0,2.0,49,0.00,,---,0.00,VWS V14.01,2013-07-10 05:19:00,
2013-07-09 23:20:00,69.7,49.7,29.81,North,355,0.0,2.0,49,0.00,,---,0.00,VWS V14.01,2013-07-10 05:20:00,
2013-07-09 23:24:00,69.7,50.8,29.81,North,355,0.0,0.0,51,0.00,,---,0.00,VWS V14.01,2013-07-10 05:24:00,
2013-07-09 23:29:00,69.6,50.2,29.81,North,355,0.0,0.0,50,0.00,,---,0.00,VWS V14.01,2013-07-10 05:29:00,
2013-07-09 23:30:00,69.5,50.1,29.82,North,355,0.0,1.0,50,0.00,,---,0.00,VWS V14.01,2013-07-10 05:30:00,
2013-07-09 23:34:00,69.4,49.4,29.81,North,355,0.0,3.0,49,0.00,,---,0.00,VWS V14.01,2013-07-10 05:34:00,
2013-07-09 23:39:00,69.3,49.9,29.81,North,355,0.0,3.0,50,0.00,,---,0.00,VWS V14.01,2013-07-10 05:39:00,
2013-07-09 23:40:00,69.2,49.8,29.81,North,355,1.0,3.0,50,0.00,,---,0.00,VWS V14.01,2013-07-10 05:40:00,
2013-07-09 23:44:00,69.2,50.3,29.82,North,355,0.0,1.0,51,0.00,,---,0.00,VWS V14.01,2013-07-10 05:44:00,
2013-07-09 23:49:00,69.0,50.7,29.81,North,355,0.0,2.0,52,0.00,,---,0.00,VWS V14.01,2013-07-10 05:49:00,
2013-07-09 23:50:00,69.0,50.7,29.81,North,355,1.0,2.0,52,0.00,,---,0.00,VWS V14.01,2013-07-10 05:50:00,
2013-07-09 23:54:00,68.9,50.6,29.82,North,355,0.0,1.0,52,0.00,,---,0.00,VWS V14.01,2013-07-10 05:54:00,
2013-07-09 23:59:00,68.8,50.5,29.82,North,355,0.0,1.0,52,0.00,,---,0.00,VWS V14.01,2013-07-10 05:59:00,